Saint Bonnet de Bellac- Haute Vienne - France
Donnes mto: dimanche, 15/01/2012
Date Horaire Temp. E. Hum. E. P.atmo. Pluie Vent Direction Direction Ensoleilleme Solaire P. de rose Temp au vent Rafales
15/01/2012 00:00 -2,6 C 88 % 1019,1 hPa 0,0 mm 0,0 km/h (0 Bft) NE 45 0 min 0 W/m -4,3 C -2,6 C 0,0 km/h (0 Bft)
15/01/2012 00:10 -2,8 C 88 % 1018,8 hPa 0,0 mm 0,0 km/h (0 Bft) NE 45 0 min 0 W/m -4,5 C -2,8 C 0,0 km/h (0 Bft)
15/01/2012 00:20 -3,1 C 88 % 1018,8 hPa 0,0 mm 0,0 km/h (0 Bft) NE 45 0 min 0 W/m -4,8 C -3,1 C 0,0 km/h (0 Bft)
15/01/2012 00:30 -3,2 C 88 % 1018,8 hPa 0,0 mm 0,0 km/h (0 Bft) NE 45 0 min 0 W/m -4,9 C -3,2 C 0,0 km/h (0 Bft)
15/01/2012 00:40 -3,5 C 88 % 1018,8 hPa 0,0 mm 0,0 km/h (0 Bft) NE 45 0 min 0 W/m -5,2 C -3,5 C 0,0 km/h (0 Bft)
15/01/2012 00:50 -3,6 C 89 % 1018,7 hPa 0,0 mm 0,0 km/h (0 Bft) NE 45 0 min 0 W/m -5,1 C -3,6 C 0,0 km/h (0 Bft)
15/01/2012 01:00 -3,8 C 89 % 1018,6 hPa 0,0 mm 0,0 km/h (0 Bft) NE 45 0 min 0 W/m -5,3 C -3,8 C 0,0 km/h (0 Bft)
15/01/2012 01:10 -4,1 C 89 % 1018,6 hPa 0,0 mm 0,0 km/h (0 Bft) NE 45 0 min 0 W/m -5,6 C -4,1 C 0,0 km/h (0 Bft)
15/01/2012 01:20 -4,2 C 89 % 1018,6 hPa 0,0 mm 0,0 km/h (0 Bft) NE 45 0 min 0 W/m -5,7 C -4,2 C 0,0 km/h (0 Bft)
15/01/2012 01:30 -4,3 C 89 % 1018,6 hPa 0,0 mm 0,0 km/h (0 Bft) NE 45 0 min 0 W/m -5,8 C -4,3 C 0,0 km/h (0 Bft)
15/01/2012 01:40 -4,4 C 90 % 1018,6 hPa 0,0 mm 0,0 km/h (0 Bft) NE 45 0 min 0 W/m -5,8 C -4,4 C 0,0 km/h (0 Bft)
15/01/2012 01:50 -4,2 C 90 % 1018,6 hPa 0,0 mm 0,0 km/h (0 Bft) NE 45 0 min 0 W/m -5,6 C -4,2 C 0,0 km/h (0 Bft)
15/01/2012 02:02 -4,2 C 90 % 1018,6 hPa 0,0 mm 0,0 km/h (0 Bft) NE 45 0 min 0 W/m -5,6 C -4,2 C 0,0 km/h (0 Bft)
15/01/2012 02:10 -4,2 C 90 % 1018,7 hPa 0,0 mm 0,0 km/h (0 Bft) NE 45 0 min 0 W/m -5,6 C -4,2 C 0,0 km/h (0 Bft)
15/01/2012 02:20 -4,2 C 91 % 1018,6 hPa 0,0 mm 0,0 km/h (0 Bft) NE 45 0 min 0 W/m -5,4 C -4,2 C 0,0 km/h (0 Bft)
15/01/2012 02:30 -4,1 C 92 % 1018,8 hPa 0,0 mm 0,0 km/h (0 Bft) O-SO 247 0 min 0 W/m -5,2 C -4,1 C 0,0 km/h (0 Bft)
15/01/2012 02:40 -4,0 C 92 % 1018,7 hPa 0,0 mm 0,0 km/h (0 Bft) SO 225 0 min 0 W/m -5,1 C -4,0 C 0,0 km/h (0 Bft)
15/01/2012 02:50 -3,9 C 92 % 1018,8 hPa 0,0 mm 0,4 km/h (0 Bft) O-SO 247 0 min 0 W/m -5,0 C -3,9 C 0,4 km/h (0 Bft)
15/01/2012 03:00 -3,9 C 92 % 1018,9 hPa 0,0 mm 0,0 km/h (0 Bft) SO 225 0 min 0 W/m -5,0 C -3,9 C 0,0 km/h (0 Bft)
15/01/2012 03:10 -4,0 C 92 % 1018,9 hPa 0,0 mm 0,4 km/h (0 Bft) SO 225 0 min 0 W/m -5,1 C -4,0 C 0,4 km/h (0 Bft)
15/01/2012 03:20 -4,2 C 92 % 1018,9 hPa 0,0 mm 1,1 km/h (1 Bft) S-SO 202 0 min 0 W/m -5,3 C -4,2 C 4,0 km/h (1 Bft)
15/01/2012 03:30 -4,3 C 92 % 1018,8 hPa 0,0 mm 0,0 km/h (0 Bft) SO 225 0 min 0 W/m -5,4 C -4,3 C 0,0 km/h (0 Bft)
15/01/2012 03:40 -4,3 C 92 % 1018,8 hPa 0,0 mm 0,0 km/h (0 Bft) S-SO 202 0 min 0 W/m -5,4 C -4,3 C 0,0 km/h (0 Bft)
15/01/2012 03:50 -4,2 C 92 % 1018,8 hPa 0,0 mm 1,8 km/h (1 Bft) S-SO 202 0 min 0 W/m -5,3 C -4,2 C 4,3 km/h (1 Bft)
15/01/2012 04:00 -4,1 C 92 % 1018,8 hPa 0,0 mm 1,4 km/h (1 Bft) S-SO 202 0 min 0 W/m -5,2 C -4,1 C 1,4 km/h (1 Bft)
15/01/2012 04:10 -3,9 C 92 % 1018,9 hPa 0,0 mm 0,0 km/h (0 Bft) SO 225 0 min 0 W/m -5,0 C -3,9 C 0,0 km/h (0 Bft)
15/01/2012 04:20 -3,7 C 92 % 1018,7 hPa 0,0 mm 0,0 km/h (0 Bft) O-SO 247 0 min 0 W/m -4,8 C -3,7 C 0,0 km/h (0 Bft)
15/01/2012 04:30 -3,6 C 92 % 1018,7 hPa 0,0 mm 0,4 km/h (0 Bft) SO 225 0 min 0 W/m -4,7 C -3,6 C 3,6 km/h (1 Bft)
15/01/2012 04:40 -3,5 C 93 % 1018,5 hPa 0,0 mm 0,4 km/h (0 Bft) SO 225 0 min 0 W/m -4,5 C -3,5 C 0,4 km/h (0 Bft)
15/01/2012 04:50 -3,4 C 93 % 1018,5 hPa 0,0 mm 0,0 km/h (0 Bft) S-SO 202 0 min 0 W/m -4,4 C -3,4 C 0,0 km/h (0 Bft)
15/01/2012 05:00 -3,4 C 93 % 1018,5 hPa 0,0 mm 0,4 km/h (0 Bft) S-SO 202 0 min 0 W/m -4,4 C -3,4 C 3,6 km/h (1 Bft)
15/01/2012 05:10 -3,4 C 93 % 1018,5 hPa 0,0 mm 0,0 km/h (0 Bft) S 180 0 min 0 W/m -4,4 C -3,4 C 0,0 km/h (0 Bft)
15/01/2012 05:20 -3,2 C 93 % 1018,3 hPa 0,0 mm 0,0 km/h (0 Bft) SO 225 0 min 0 W/m -4,2 C -3,2 C 0,0 km/h (0 Bft)
15/01/2012 05:30 -3,2 C 93 % 1018,2 hPa 0,0 mm 0,4 km/h (0 Bft) SO 225 0 min 0 W/m -4,2 C -3,2 C 4,0 km/h (1 Bft)
15/01/2012 05:40 -3,2 C 93 % 1018,2 hPa 0,0 mm 2,2 km/h (1 Bft) S 180 0 min 0 W/m -4,2 C -3,2 C 2,9 km/h (1 Bft)
15/01/2012 05:50 -3,2 C 93 % 1018,1 hPa 0,0 mm 0,0 km/h (0 Bft) S 180 0 min 0 W/m -4,2 C -3,2 C 0,0 km/h (0 Bft)
15/01/2012 06:00 -3,3 C 93 % 1018,1 hPa 0,0 mm 0,0 km/h (0 Bft) S 180 0 min 0 W/m -4,3 C -3,3 C 0,0 km/h (0 Bft)
15/01/2012 06:10 -3,4 C 93 % 1018,2 hPa 0,0 mm 0,4 km/h (0 Bft) S 180 0 min 0 W/m -4,4 C -3,4 C 4,0 km/h (1 Bft)
15/01/2012 06:20 -3,4 C 93 % 1018,1 hPa 0,0 mm 0,0 km/h (0 Bft) S-SO 202 0 min 0 W/m -4,4 C -3,4 C 0,0 km/h (0 Bft)
15/01/2012 06:30 -3,4 C 93 % 1018,2 hPa 0,0 mm 0,0 km/h (0 Bft) O-SO 247 0 min 0 W/m -4,4 C -3,4 C 0,0 km/h (0 Bft)
15/01/2012 06:40 -3,4 C 93 % 1018,2 hPa 0,0 mm 0,0 km/h (0 Bft) S-SO 202 0 min 0 W/m -4,4 C -3,4 C 0,0 km/h (0 Bft)
15/01/2012 06:50 -3,4 C 93 % 1018,0 hPa 0,0 mm 0,0 km/h (0 Bft) SO 225 0 min 0 W/m -4,4 C -3,4 C 0,0 km/h (0 Bft)
15/01/2012 07:00 -3,3 C 93 % 1018,0 hPa 0,0 mm 0,0 km/h (0 Bft) S-SE 157 0 min 0 W/m -4,3 C -3,3 C 0,0 km/h (0 Bft)
15/01/2012 07:10 -3,3 C 93 % 1018,0 hPa 0,0 mm 0,0 km/h (0 Bft) E 90 0 min 0 W/m -4,3 C -3,3 C 0,0 km/h (0 Bft)
15/01/2012 07:20 -3,2 C 93 % 1018,0 hPa 0,0 mm 0,0 km/h (0 Bft) E 90 0 min 0 W/m -4,2 C -3,2 C 0,0 km/h (0 Bft)
15/01/2012 07:30 -3,2 C 93 % 1017,9 hPa 0,0 mm 0,0 km/h (0 Bft) S-SE 157 0 min 0 W/m -4,2 C -3,2 C 0,0 km/h (0 Bft)
15/01/2012 07:40 -3,2 C 93 % 1017,8 hPa 0,0 mm 0,4 km/h (0 Bft) SE 135 0 min 0 W/m -4,2 C -3,2 C 3,6 km/h (1 Bft)
15/01/2012 07:50 -3,2 C 93 % 1017,7 hPa 0,0 mm 0,0 km/h (0 Bft) E-SE 112 0 min 0 W/m -4,2 C -3,2 C 0,0 km/h (0 Bft)
15/01/2012 08:00 -3,2 C 93 % 1017,6 hPa 0,0 mm 0,0 km/h (0 Bft) SE 135 0 min 0 W/m -4,2 C -3,2 C 0,0 km/h (0 Bft)
15/01/2012 08:10 -3,1 C 93 % 1017,6 hPa 0,0 mm 1,1 km/h (1 Bft) NE 45 0 min 0 W/m -4,1 C -3,1 C 1,1 km/h (1 Bft)
15/01/2012 08:20 -3,1 C 92 % 1017,7 hPa 0,0 mm 0,0 km/h (0 Bft) E-SE 112 0 min 0 W/m -4,2 C -3,1 C 0,0 km/h (0 Bft)
15/01/2012 08:30 -3,1 C 92 % 1017,5 hPa 0,0 mm 0,7 km/h (0 Bft) S-SE 157 0 min 0 W/m -4,2 C -3,1 C 0,7 km/h (0 Bft)
15/01/2012 08:40 -3,0 C 93 % 1017,7 hPa 0,0 mm 0,0 km/h (0 Bft) S 180 0 min 0 W/m -4,0 C -3,0 C 0,0 km/h (0 Bft)
15/01/2012 08:50 -2,9 C 93 % 1017,6 hPa 0,0 mm 0,0 km/h (0 Bft) S-SO 202 2 min 0 W/m -3,9 C -2,9 C 0,0 km/h (0 Bft)
15/01/2012 09:00 -2,9 C 93 % 1017,5 hPa 0,0 mm 0,0 km/h (0 Bft) S 180 2 min 0 W/m -3,9 C -2,9 C 0,0 km/h (0 Bft)
15/01/2012 09:10 -3,1 C 93 % 1017,5 hPa 0,0 mm 0,0 km/h (0 Bft) S 180 2 min 0 W/m -4,1 C -3,1 C 0,0 km/h (0 Bft)
15/01/2012 09:20 -3,1 C 93 % 1017,5 hPa 0,0 mm 0,0 km/h (0 Bft) S-SO 202 2 min 0 W/m -4,1 C -3,1 C 0,0 km/h (0 Bft)
15/01/2012 09:30 -2,9 C 93 % 1017,3 hPa 0,0 mm 0,0 km/h (0 Bft) S-SE 157 2 min 0 W/m -3,9 C -2,9 C 0,0 km/h (0 Bft)
15/01/2012 09:40 -2,9 C 93 % 1017,2 hPa 0,0 mm 0,7 km/h (0 Bft) S-SE 157 2 min 0 W/m -3,9 C -2,9 C 0,7 km/h (0 Bft)
15/01/2012 09:50 -2,9 C 93 % 1017,3 hPa 0,0 mm 0,0 km/h (0 Bft) E-SE 112 2 min 0 W/m -3,9 C -2,9 C 0,0 km/h (0 Bft)
15/01/2012 10:00 -2,8 C 93 % 1017,3 hPa 0,0 mm 1,4 km/h (1 Bft) E-SE 112 2 min 0 W/m -3,8 C -2,8 C 6,5 km/h (2 Bft)
15/01/2012 10:10 -2,9 C 93 % 1017,2 hPa 0,0 mm 1,1 km/h (1 Bft) SE 135 2 min 0 W/m -3,9 C -2,9 C 3,2 km/h (1 Bft)
15/01/2012 10:20 -2,9 C 92 % 1017,4 hPa 0,0 mm 2,2 km/h (1 Bft) E-SE 112 2 min 0 W/m -4,0 C -2,9 C 2,2 km/h (1 Bft)
15/01/2012 10:30 -2,9 C 93 % 1017,2 hPa 0,0 mm 0,0 km/h (0 Bft) SE 135 2 min 0 W/m -3,9 C -2,9 C 0,0 km/h (0 Bft)
15/01/2012 10:40 -2,9 C 93 % 1017,2 hPa 0,0 mm 0,0 km/h (0 Bft) E-NE 67 2 min 0 W/m -3,9 C -2,9 C 0,0 km/h (0 Bft)
15/01/2012 10:50 -2,9 C 93 % 1017,2 hPa 0,0 mm 0,4 km/h (0 Bft) E-NE 67 2 min 0 W/m -3,9 C -2,9 C 3,2 km/h (1 Bft)
15/01/2012 11:00 -2,9 C 93 % 1017,2 hPa 0,0 mm 0,0 km/h (0 Bft) E-NE 67 2 min 0 W/m -3,9 C -2,9 C 0,0 km/h (0 Bft)
15/01/2012 11:10 -2,8 C 93 % 1017,2 hPa 0,0 mm 0,0 km/h (0 Bft) E-SE 112 2 min 0 W/m -3,8 C -2,8 C 0,0 km/h (0 Bft)
15/01/2012 11:20 -2,7 C 93 % 1017,1 hPa 0,0 mm 0,0 km/h (0 Bft) NE 45 2 min 0 W/m -3,7 C -2,7 C 0,0 km/h (0 Bft)
15/01/2012 11:30 -2,7 C 93 % 1017,2 hPa 0,0 mm 0,4 km/h (0 Bft) S 180 2 min 0 W/m -3,7 C -2,7 C 3,2 km/h (1 Bft)
15/01/2012 11:40 -2,6 C 93 % 1017,1 hPa 0,0 mm 0,0 km/h (0 Bft) S-SO 202 2 min 0 W/m -3,6 C -2,6 C 0,0 km/h (0 Bft)
15/01/2012 11:50 -2,6 C 93 % 1017,1 hPa 0,0 mm 0,0 km/h (0 Bft) S-SO 202 2 min 0 W/m -3,6 C -2,6 C 0,0 km/h (0 Bft)
15/01/2012 12:00 -2,5 C 93 % 1017,0 hPa 0,0 mm 0,0 km/h (0 Bft) O-SO 247 2 min 0 W/m -3,5 C -2,5 C 0,0 km/h (0 Bft)
15/01/2012 12:10 -2,4 C 93 % 1016,9 hPa 0,0 mm 0,0 km/h (0 Bft) O-NO 292 2 min 0 W/m -3,4 C -2,4 C 0,0 km/h (0 Bft)
15/01/2012 12:20 -2,3 C 93 % 1016,8 hPa 0,0 mm 0,0 km/h (0 Bft) O-NO 292 2 min 0 W/m -3,3 C -2,3 C 0,0 km/h (0 Bft)
15/01/2012 12:30 -2,2 C 93 % 1016,6 hPa 0,0 mm 0,4 km/h (0 Bft) E-SE 112 2 min 0 W/m -3,2 C -2,2 C 0,4 km/h (0 Bft)
15/01/2012 12:40 -2,2 C 93 % 1016,5 hPa 0,0 mm 0,0 km/h (0 Bft) E-SE 112 2 min 0 W/m -3,2 C -2,2 C 0,0 km/h (0 Bft)
15/01/2012 12:50 -2,2 C 93 % 1016,5 hPa 0,0 mm 0,0 km/h (0 Bft) E-NE 67 2 min 0 W/m -3,2 C -2,2 C 0,0 km/h (0 Bft)
15/01/2012 13:00 -2,2 C 93 % 1016,6 hPa 0,0 mm 0,0 km/h (0 Bft) E-NE 67 2 min 0 W/m -3,2 C -2,2 C 0,0 km/h (0 Bft)
15/01/2012 13:10 -2,2 C 93 % 1016,4 hPa 0,0 mm 1,4 km/h (1 Bft) N-NE 22 2 min 0 W/m -3,2 C -2,2 C 2,9 km/h (1 Bft)
15/01/2012 13:20 -2,3 C 93 % 1016,3 hPa 0,0 mm 0,0 km/h (0 Bft) N-NE 22 2 min 0 W/m -3,3 C -2,3 C 0,0 km/h (0 Bft)
15/01/2012 13:30 -2,2 C 93 % 1016,1 hPa 0,0 mm 0,0 km/h (0 Bft) N-NE 22 2 min 0 W/m -3,2 C -2,2 C 0,0 km/h (0 Bft)
15/01/2012 13:40 -2,2 C 93 % 1016,1 hPa 0,0 mm 0,0 km/h (0 Bft) E-SE 112 2 min 0 W/m -3,2 C -2,2 C 0,0 km/h (0 Bft)
15/01/2012 13:50 -1,9 C 93 % 1015,9 hPa 0,0 mm 0,4 km/h (0 Bft) N-NE 22 2 min 0 W/m -2,9 C -1,9 C 4,0 km/h (1 Bft)
15/01/2012 14:00 -1,8 C 93 % 1015,8 hPa 0,0 mm 3,6 km/h (1 Bft) NE 45 2 min 0 W/m -2,8 C -1,8 C 6,5 km/h (2 Bft)
15/01/2012 14:10 -1,9 C 93 % 1015,7 hPa 0,0 mm 0,4 km/h (0 Bft) E-NE 67 2 min 0 W/m -2,9 C -1,9 C 0,4 km/h (0 Bft)
15/01/2012 14:20 -1,8 C 93 % 1015,5 hPa 0,0 mm 0,0 km/h (0 Bft) E-NE 67 2 min 0 W/m -2,8 C -1,8 C 0,0 km/h (0 Bft)
15/01/2012 14:30 -1,8 C 93 % 1015,0 hPa 0,0 mm 2,2 km/h (1 Bft) N-NE 22 2 min 0 W/m -2,8 C -1,8 C 4,3 km/h (1 Bft)
15/01/2012 14:40 -1,8 C 93 % 1014,9 hPa 0,0 mm 2,2 km/h (1 Bft) E-SE 112 2 min 0 W/m -2,8 C -1,8 C 4,3 km/h (1 Bft)
15/01/2012 14:50 -1,7 C 93 % 1014,8 hPa 0,0 mm 0,7 km/h (0 Bft) NE 45 2 min 0 W/m -2,7 C -1,7 C 4,3 km/h (1 Bft)
15/01/2012 15:00 -1,6 C 93 % 1014,9 hPa 0,0 mm 1,8 km/h (1 Bft) N-NE 22 2 min 0 W/m -2,6 C -1,6 C 4,0 km/h (1 Bft)
15/01/2012 15:10 -1,6 C 93 % 1015,0 hPa 0,0 mm 1,8 km/h (1 Bft) NE 45 2 min 0 W/m -2,6 C -1,6 C 3,2 km/h (1 Bft)
15/01/2012 15:20 -1,6 C 93 % 1015,1 hPa 0,0 mm 0,0 km/h (0 Bft) NE 45 2 min 0 W/m -2,6 C -1,6 C 0,0 km/h (0 Bft)
15/01/2012 15:30 -1,5 C 93 % 1015,0 hPa 0,0 mm 1,4 km/h (1 Bft) NE 45 2 min 0 W/m -2,5 C -1,5 C 4,0 km/h (1 Bft)
15/01/2012 15:40 -1,5 C 93 % 1014,9 hPa 0,0 mm 1,1 km/h (1 Bft) N-NE 22 2 min 0 W/m -2,5 C -1,5 C 3,6 km/h (1 Bft)
15/01/2012 15:50 -1,4 C 93 % 1014,9 hPa 0,0 mm 3,2 km/h (1 Bft) N-NE 22 2 min 0 W/m -2,4 C -1,4 C 4,3 km/h (1 Bft)
15/01/2012 16:00 -1,5 C 93 % 1015,0 hPa 0,0 mm 0,0 km/h (0 Bft) E-NE 67 2 min 0 W/m -2,5 C -1,5 C 0,0 km/h (0 Bft)
15/01/2012 16:10 -1,4 C 93 % 1014,9 hPa 0,0 mm 2,9 km/h (1 Bft) NE 45 2 min 0 W/m -2,4 C -1,4 C 4,3 km/h (1 Bft)
15/01/2012 16:20 -1,5 C 92 % 1014,8 hPa 0,0 mm 2,2 km/h (1 Bft) NE 45 2 min 0 W/m -2,6 C -1,5 C 4,3 km/h (1 Bft)
15/01/2012 16:30 -1,6 C 92 % 1014,9 hPa 0,0 mm 2,5 km/h (1 Bft) NE 45 2 min 0 W/m -2,7 C -1,6 C 4,0 km/h (1 Bft)
15/01/2012 16:40 -1,6 C 92 % 1014,9 hPa 0,0 mm 0,0 km/h (0 Bft) E-NE 67 2 min 0 W/m -2,7 C -1,6 C 0,0 km/h (0 Bft)
15/01/2012 16:50 -1,6 C 92 % 1014,9 hPa 0,0 mm 0,4 km/h (0 Bft) E-NE 67 2 min 0 W/m -2,7 C -1,6 C 4,0 km/h (1 Bft)
15/01/2012 17:00 -1,6 C 92 % 1014,9 hPa 0,0 mm 7,6 km/h (2 Bft) N-NE 22 2 min 0 W/m -2,7 C -4,5 C 12,2 km/h (2 Bft)
15/01/2012 17:10 -1,6 C 92 % 1014,9 hPa 0,0 mm 1,8 km/h (1 Bft) E-NE 67 2 min 0 W/m -2,7 C -1,6 C 4,3 km/h (1 Bft)
15/01/2012 17:20 -1,6 C 92 % 1014,8 hPa 0,0 mm 1,4 km/h (1 Bft) NE 45 2 min 0 W/m -2,7 C -1,6 C 3,6 km/h (1 Bft)
15/01/2012 17:30 -1,6 C 92 % 1014,7 hPa 0,0 mm 0,4 km/h (0 Bft) N 360 0 min 0 W/m -2,7 C -1,6 C 2,9 km/h (1 Bft)
15/01/2012 17:40 -1,5 C 92 % 1014,6 hPa 0,0 mm 1,8 km/h (1 Bft) E-NE 67 0 min 0 W/m -2,6 C -1,5 C 4,3 km/h (1 Bft)
15/01/2012 17:50 -1,5 C 93 % 1014,6 hPa 0,0 mm 1,4 km/h (1 Bft) E-NE 67 0 min 0 W/m -2,5 C -1,5 C 3,2 km/h (1 Bft)
15/01/2012 18:00 -1,5 C 93 % 1014,7 hPa 0,0 mm 2,2 km/h (1 Bft) E-NE 67 0 min 0 W/m -2,5 C -1,5 C 4,3 km/h (1 Bft)
15/01/2012 18:10 -1,4 C 93 % 1014,5 hPa 0,0 mm 0,0 km/h (0 Bft) E-NE 67 0 min 0 W/m -2,4 C -1,4 C 0,0 km/h (0 Bft)
15/01/2012 18:20 -1,4 C 93 % 1014,5 hPa 0,0 mm 1,4 km/h (1 Bft) E-NE 67 0 min 0 W/m -2,4 C -1,4 C 4,0 km/h (1 Bft)
15/01/2012 18:30 -1,4 C 93 % 1014,5 hPa 0,0 mm 0,0 km/h (0 Bft) E-NE 67 0 min 0 W/m -2,4 C -1,4 C 0,0 km/h (0 Bft)
15/01/2012 18:40 -1,4 C 93 % 1014,4 hPa 0,0 mm 0,0 km/h (0 Bft) E-NE 67 0 min 0 W/m -2,4 C -1,4 C 3,2 km/h (1 Bft)
15/01/2012 18:50 -1,3 C 93 % 1014,5 hPa 0,0 mm 1,1 km/h (1 Bft) E-NE 67 0 min 0 W/m -2,3 C -1,3 C 3,2 km/h (1 Bft)
15/01/2012 19:00 -1,3 C 93 % 1014,4 hPa 0,0 mm 0,4 km/h (0 Bft) NE 45 0 min 0 W/m -2,3 C -1,3 C 0,4 km/h (0 Bft)
15/01/2012 19:10 -1,3 C 93 % 1014,5 hPa 0,0 mm 0,0 km/h (0 Bft) E-NE 67 0 min 0 W/m -2,3 C -1,3 C 0,0 km/h (0 Bft)
15/01/2012 19:20 -1,3 C 93 % 1014,4 hPa 0,0 mm 0,4 km/h (0 Bft) NE 45 0 min 0 W/m -2,3 C -1,3 C 4,0 km/h (1 Bft)
15/01/2012 19:30 -1,4 C 93 % 1014,2 hPa 0,0 mm 0,0 km/h (0 Bft) E-NE 67 0 min 0 W/m -2,4 C -1,4 C 0,0 km/h (0 Bft)
15/01/2012 19:40 -1,4 C 93 % 1014,3 hPa 0,0 mm 0,0 km/h (0 Bft) E-NE 67 0 min 0 W/m -2,4 C -1,4 C 0,0 km/h (0 Bft)
15/01/2012 19:50 -1,5 C 93 % 1014,3 hPa 0,0 mm 0,7 km/h (0 Bft) E-NE 67 0 min 0 W/m -2,5 C -1,5 C 2,9 km/h (1 Bft)
15/01/2012 20:00 -1,6 C 93 % 1014,2 hPa 0,0 mm 0,0 km/h (0 Bft) E-NE 67 0 min 0 W/m -2,6 C -1,6 C 0,0 km/h (0 Bft)
15/01/2012 20:10 -1,6 C 93 % 1014,3 hPa 0,0 mm 0,0 km/h (0 Bft) E-NE 67 0 min 0 W/m -2,6 C -1,6 C 0,0 km/h (0 Bft)
15/01/2012 20:20 -1,6 C 93 % 1014,3 hPa 0,0 mm 0,0 km/h (0 Bft) E-NE 67 0 min 0 W/m -2,6 C -1,6 C 0,0 km/h (0 Bft)
15/01/2012 20:30 -1,7 C 93 % 1014,3 hPa 0,0 mm 0,4 km/h (0 Bft) E-NE 67 0 min 0 W/m -2,7 C -1,7 C 4,0 km/h (1 Bft)
15/01/2012 20:40 -1,7 C 93 % 1014,4 hPa 0,0 mm 3,6 km/h (1 Bft) E-NE 67 0 min 0 W/m -2,7 C -1,7 C 6,5 km/h (2 Bft)
15/01/2012 20:50 -1,8 C 93 % 1014,4 hPa 0,0 mm 0,0 km/h (0 Bft) E-NE 67 0 min 0 W/m -2,8 C -1,8 C 0,0 km/h (0 Bft)
15/01/2012 21:00 -1,9 C 93 % 1014,4 hPa 0,0 mm 0,0 km/h (0 Bft) E-NE 67 0 min 0 W/m -2,9 C -1,9 C 0,0 km/h (0 Bft)
15/01/2012 21:10 -2,0 C 93 % 1014,3 hPa 0,0 mm 0,0 km/h (0 Bft) E-NE 67 0 min 0 W/m -3,0 C -2,0 C 0,0 km/h (0 Bft)
15/01/2012 21:20 -2,1 C 93 % 1014,4 hPa 0,0 mm 0,0 km/h (0 Bft) E-SE 112 0 min 0 W/m -3,1 C -2,1 C 0,0 km/h (0 Bft)
15/01/2012 21:30 -2,2 C 93 % 1014,3 hPa 0,0 mm 0,0 km/h (0 Bft) E-NE 67 0 min 0 W/m -3,2 C -2,2 C 0,0 km/h (0 Bft)
15/01/2012 21:40 -2,2 C 93 % 1014,4 hPa 0,0 mm 0,0 km/h (0 Bft) E-NE 67 0 min 0 W/m -3,2 C -2,2 C 0,0 km/h (0 Bft)
15/01/2012 21:50 -2,4 C 93 % 1014,3 hPa 0,0 mm 0,0 km/h (0 Bft) E-NE 67 0 min 0 W/m -3,4 C -2,4 C 0,0 km/h (0 Bft)
15/01/2012 22:00 -2,4 C 93 % 1014,2 hPa 0,0 mm 0,0 km/h (0 Bft) SE 135 0 min 0 W/m -3,4 C -2,4 C 0,0 km/h (0 Bft)
15/01/2012 22:10 -2,5 C 93 % 1014,3 hPa 0,0 mm 2,5 km/h (1 Bft) E-NE 67 0 min 0 W/m -3,5 C -2,5 C 2,9 km/h (1 Bft)
15/01/2012 22:20 -2,5 C 93 % 1014,1 hPa 0,0 mm 0,0 km/h (0 Bft) E-NE 67 0 min 0 W/m -3,5 C -2,5 C 0,0 km/h (0 Bft)
15/01/2012 22:30 -2,6 C 93 % 1014,1 hPa 0,0 mm 0,0 km/h (0 Bft) E 90 0 min 0 W/m -3,6 C -2,6 C 0,0 km/h (0 Bft)
15/01/2012 22:40 -2,6 C 93 % 1014,1 hPa 0,0 mm 0,0 km/h (0 Bft) NE 45 0 min 0 W/m -3,6 C -2,6 C 0,0 km/h (0 Bft)
15/01/2012 22:50 -2,7 C 93 % 1014,1 hPa 0,0 mm 1,4 km/h (1 Bft) E-NE 67 0 min 0 W/m -3,7 C -2,7 C 4,3 km/h (1 Bft)
15/01/2012 23:00 -2,8 C 93 % 1014,0 hPa 0,0 mm 0,0 km/h (0 Bft) E-NE 67 0 min 0 W/m -3,8 C -2,8 C 0,0 km/h (0 Bft)
15/01/2012 23:10 -2,9 C 93 % 1014,1 hPa 0,0 mm 0,0 km/h (0 Bft) E-NE 67 0 min 0 W/m -3,9 C -2,9 C 3,2 km/h (1 Bft)
15/01/2012 23:20 -3,1 C 93 % 1014,1 hPa 0,0 mm 0,0 km/h (0 Bft) E-NE 67 0 min 0 W/m -4,1 C -3,1 C 0,0 km/h (0 Bft)
15/01/2012 23:30 -3,1 C 93 % 1014,2 hPa 0,0 mm 0,0 km/h (0 Bft) E-NE 67 0 min 0 W/m -4,1 C -3,1 C 0,0 km/h (0 Bft)
15/01/2012 23:40 -3,1 C 93 % 1014,1 hPa 0,0 mm 0,0 km/h (0 Bft) E-NE 67 0 min 0 W/m -4,1 C -3,1 C 2,9 km/h (1 Bft)
15/01/2012 23:50 -3,2 C 93 % 1014,1 hPa 0,0 mm 0,0 km/h (0 Bft) E-NE 67 0 min 0 W/m -4,2 C -3,2 C 0,0 km/h (0 Bft)
_ Min-Heure 01:40 00:40 23:00 - 23:50 - - - - 01:30 17:00 23:50
Minimum _ -4,4 C 88 % 1014,0 hPa - 0,0 km/h (0 Bft) - - - - -5,8 C -4,5 C 0,0 km/h (0 Bft)
_ Max-Heure 19:20 23:50 00:00 23:50 17:00 - - 17:20 23:50 19:20 19:20 17:00
Maximum _ -1,3 C 93 % 1019,1 hPa 0,0 mm 7,6 km/h
N-NE (2 Bft)
- - 2 min 0 W/m -2,3 C -1,3 C 12,2 km/h
N-NE (2 Bft)
Moyenne _ -2,7 C 92 % 1016,5 hPa #0,0 mm 0,5 km/h (0 Bft) E-NE - #1:44 h 0 W/m -3,7 C -2,7 C 1,3 km/h (1 Bft)
Saint Bonnet de Bellac- Haute Vienne - France